Back to Top

Language: 

My Weather Underground Personal Weather Station Historical Data with Graphs...

Delerius Weather Station Historical Data
Daily Summary for June 8, 2017 Units:  Metric    English   Both
« Previous Day
Next Day »
Daily Weekly Monthly Yearly Custom
  High: Low: Average:
Temperature: 19.7 °C 12.2 °C 15.3 °C
Dew Point: 14.7 °C 10.4 °C 12.6 °C
Humidity: 94 % 62 % 85 %
Wind Speed: 30.6 km/h 0 km/h 14.8 km/h
Wind Gust: 53.1 km/h - -
Wind:- - SSW
Pressure: 1007.3 hPa 1001.2 hPa -
Precipitation: 1.27 mm    
Historical Graphs
 
 
Tabular Data for June 8, 2017
Time Temperature Dew Point Pressure Wind Wind Speed Wind Gust Humidity Rainfall Rate (Hourly) solar Conditions
00:03 12.2 °C 10.4 °C 1007.3 hPa South 4.8 km/h 12.9 km/h 89 % 0 mm 0 W/m2
00:08 12.2 °C 10.6 °C 1007 hPa South 6.4 km/h 20.9 km/h 90 % 0 mm 0 W/m2
00:13 12.2 °C 10.6 °C 1007.3 hPa SSW 8 km/h 20.9 km/h 90 % 0 mm 0 W/m2
00:18 12.2 °C 10.6 °C 1007 hPa SSW 8 km/h 19.3 km/h 90 % 0 mm 0 W/m2
00:23 12.2 °C 10.6 °C 1007 hPa SSW 8 km/h 17.7 km/h 90 % 0 mm 0 W/m2
00:28 12.2 °C 10.8 °C 1007 hPa SSW 4.8 km/h 14.5 km/h 91 % 0 mm 0 W/m2
00:33 12.2 °C 10.8 °C 1007 hPa SW 4.8 km/h 14.5 km/h 91 % 0 mm 0 W/m2
00:38 12.2 °C 10.8 °C 1007 hPa SSW 4.8 km/h 14.5 km/h 91 % 0 mm 0 W/m2
00:43 12.2 °C 10.8 °C 1007 hPa SW 1.6 km/h 9.7 km/h 91 % 0 mm 0 W/m2
00:48 12.2 °C 10.8 °C 1007 hPa SSW 3.2 km/h 11.3 km/h 91 % 0 mm 0 W/m2
00:53 12.3 °C 10.9 °C 1007 hPa SSW 4.8 km/h 14.5 km/h 91 % 0 mm 0 W/m2
00:58 12.3 °C 10.9 °C 1007 hPa SSW 8 km/h 16.1 km/h 91 % 0 mm 0 W/m2
01:03 12.3 °C 10.9 °C 1007 hPa SW 8 km/h 16.1 km/h 91 % 0 mm 0 W/m2
01:08 12.3 °C 11.1 °C 1006.7 hPa SSW 8 km/h 19.3 km/h 92 % 0 mm 0 W/m2
01:13 12.4 °C 11.1 °C 1006.7 hPa SSW 9.7 km/h 19.3 km/h 92 % 0 mm 0 W/m2
01:18 12.4 °C 11.1 °C 1006.7 hPa SSW 8 km/h 16.1 km/h 92 % 0 mm 0 W/m2
01:23 12.4 °C 11.1 °C 1006.7 hPa SSW 6.4 km/h 16.1 km/h 92 % 0 mm 0 W/m2
01:28 12.4 °C 11.1 °C 1006.7 hPa SSW 4.8 km/h 11.3 km/h 92 % 0 mm 0 W/m2
01:33 12.4 °C 11.1 °C 1006.7 hPa SSW 8 km/h 17.7 km/h 92 % 0 mm 0 W/m2
01:38 12.6 °C 11.3 °C 1006.7 hPa SW 11.3 km/h 17.7 km/h 92 % 0 mm 0 W/m2
01:43 12.6 °C 11.3 °C 1006.7 hPa SW 11.3 km/h 24.1 km/h 92 % 0 mm 0 W/m2
01:48 12.7 °C 11.4 °C 1006.7 hPa SW 11.3 km/h 24.1 km/h 92 % 0 mm 0 W/m2
01:54 12.8 °C 11.6 °C 1006.3 hPa SW 11.3 km/h 19.3 km/h 92 % 0 mm 0 W/m2
01:59 12.8 °C 11.6 °C 1006.3 hPa SW 11.3 km/h 19.3 km/h 92 % 0 mm 0 W/m2
02:04 12.9 °C 11.6 °C 1006.7 hPa SW 12.9 km/h 25.7 km/h 92 % 0 mm 0 W/m2
02:09 13.1 °C 11.8 °C 1006.3 hPa SW 14.5 km/h 29 km/h 92 % 0 mm 0 W/m2
02:14 13.1 °C 11.8 °C 1006.7 hPa SW 14.5 km/h 29 km/h 92 % 0 mm 0 W/m2
02:19 13.2 °C 11.8 °C 1006.3 hPa WSW 11.3 km/h 29 km/h 91 % 0 mm 0 W/m2
02:24 13.2 °C 11.8 °C 1006.7 hPa WSW 9.7 km/h 29 km/h 91 % 0 mm 0 W/m2
02:29 13.3 °C 11.9 °C 1006.7 hPa WSW 11.3 km/h 22.5 km/h 91 % 0 mm 0 W/m2
02:34 13.4 °C 11.9 °C 1006.7 hPa WSW 14.5 km/h 22.5 km/h 91 % 0 mm 0 W/m2
02:39 13.4 °C 11.9 °C 1006.7 hPa WSW 14.5 km/h 22.5 km/h 91 % 0 mm 0 W/m2
02:44 13.5 °C 12.1 °C 1006.3 hPa WSW 12.9 km/h 22.5 km/h 91 % 0 mm 0 W/m2
02:49 13.6 °C 12.2 °C 1006.3 hPa WSW 11.3 km/h 22.5 km/h 91 % 0 mm 0 W/m2
02:54 13.6 °C 12.2 °C 1006.3 hPa WSW 11.3 km/h 19.3 km/h 91 % 0 mm 0 W/m2
02:59 13.6 °C 12.2 °C 1006.3 hPa WSW 11.3 km/h 19.3 km/h 91 % 0 mm 0 W/m2
03:04 13.6 °C 12.2 °C 1006.3 hPa WSW 8 km/h 16.1 km/h 91 % 0 mm 0 W/m2
03:09 13.6 °C 12.2 °C 1006.3 hPa West 6.4 km/h 14.5 km/h 91 % 0 mm 0 W/m2
03:14 13.6 °C 12.2 °C 1006.3 hPa West 6.4 km/h 14.5 km/h 91 % 0 mm 0 W/m2
03:19 13.6 °C 12.2 °C 1006.3 hPa West 8 km/h 14.5 km/h 91 % 0 mm 0 W/m2
03:24 13.6 °C 12.2 °C 1006.3 hPa West 6.4 km/h 12.9 km/h 91 % 0 mm 0 W/m2
03:29 13.6 °C 12.2 °C 1006.3 hPa West 4.8 km/h 11.3 km/h 91 % 0 mm 0 W/m2
03:34 13.6 °C 12.2 °C 1006.3 hPa West 3.2 km/h 12.9 km/h 91 % 0 mm 0 W/m2
03:39 13.6 °C 12.2 °C 1006.3 hPa West 1.6 km/h 12.9 km/h 91 % 0 mm 0 W/m2
03:44 13.6 °C 12.2 °C 1006.3 hPa Calm   4.8 km/h 91 % 0 mm 0 W/m2
03:49 13.6 °C 12.2 °C 1006 hPa Calm   3.2 km/h 91 % 0 mm 0 W/m2
03:54 13.6 °C 12.2 °C 1006 hPa NNE 1.6 km/h 6.4 km/h 91 % 0 mm 0 W/m2
03:59 13.5 °C 12.2 °C 1006 hPa NE 3.2 km/h 8 km/h 92 % 0 mm 0 W/m2
04:04 13.6 °C 12.3 °C 1006 hPa East 4.8 km/h 11.3 km/h 92 % 0 mm 0 W/m2
04:09 13.6 °C 12.3 °C 1006 hPa SE 4.8 km/h 11.3 km/h 92 % 0 mm 0 W/m2
04:14 13.6 °C 12.3 °C 1006 hPa SSE 4.8 km/h 9.7 km/h 92 % 0 mm 0 W/m2
04:19 13.6 °C 12.3 °C 1006 hPa SSE 3.2 km/h 9.7 km/h 92 % 0 mm 0 W/m2
04:24 13.7 °C 12.4 °C 1006 hPa South 4.8 km/h 9.7 km/h 92 % 0 mm 0 W/m2
04:29 13.7 °C 12.4 °C 1006 hPa South 6.4 km/h 16.1 km/h 92 % 0 mm 0 W/m2
04:34 13.7 °C 12.4 °C 1006 hPa South 6.4 km/h 16.1 km/h 92 % 0 mm 0 W/m2
04:39 13.7 °C 12.4 °C 1006 hPa SSE 6.4 km/h 12.9 km/h 92 % 0 mm 0 W/m2
04:44 13.7 °C 12.4 °C 1006 hPa SE 6.4 km/h 12.9 km/h 92 % 0 mm 0 W/m2
04:49 13.8 °C 12.5 °C 1006 hPa SSE 6.4 km/h 11.3 km/h 92 % 0 mm 0 W/m2
04:54 13.8 °C 12.5 °C 1006 hPa SSE 6.4 km/h 12.9 km/h 92 % 0 mm 0 W/m2
04:59 13.8 °C 12.5 °C 1005.6 hPa SSE 6.4 km/h 12.9 km/h 92 % 0 mm 5 W/m2
05:04 13.8 °C 12.5 °C 1006 hPa SSE 6.4 km/h 19.3 km/h 92 % 0 mm 7 W/m2
05:10 13.9 °C 12.6 °C 1005.6 hPa SW 8 km/h 19.3 km/h 92 % 0 mm 7 W/m2
05:15 13.9 °C 12.6 °C 1006 hPa SW 9.7 km/h 19.3 km/h 92 % 0 mm 7 W/m2
05:20 13.9 °C 12.4 °C 1005.6 hPa SW 9.7 km/h 19.3 km/h 91 % 0 mm 7 W/m2
05:25 13.9 °C 12.4 °C 1005.6 hPa SSW 8 km/h 14.5 km/h 91 % 0 mm 9 W/m2
05:30 13.9 °C 12.6 °C 1005.6 hPa SSW 8 km/h 14.5 km/h 92 % 0 mm 11 W/m2
05:35 13.9 °C 12.6 °C 1005.6 hPa SSW 8 km/h 17.7 km/h 92 % 0 mm 16 W/m2
05:40 13.9 °C 12.6 °C 1005.6 hPa SSW 8 km/h 17.7 km/h 92 % 0 mm 19 W/m2
05:45 13.9 °C 12.6 °C 1005.6 hPa South 8 km/h 14.5 km/h 92 % 0 mm 25 W/m2
05:50 13.9 °C 12.6 °C 1005.6 hPa South 6.4 km/h 12.9 km/h 92 % 0 mm 28 W/m2
05:55 13.9 °C 12.6 °C 1005.6 hPa SSE 4.8 km/h 9.7 km/h 92 % 0 mm 28 W/m2
06:00 13.9 °C 12.6 °C 1005.6 hPa SSE 4.8 km/h 11.3 km/h 92 % 0 mm 25 W/m2
06:05 13.9 °C 12.6 °C 1005.3 hPa SSE 4.8 km/h 11.3 km/h 92 % 0 mm 21 W/m2
06:10 13.8 °C 12.7 °C 1005.6 hPa SSE 4.8 km/h 9.7 km/h 93 % 0 mm 19 W/m2
06:15 13.8 °C 12.7 °C 1005.6 hPa South 6.4 km/h 12.9 km/h 93 % 0 mm 23 W/m2
06:20 13.8 °C 12.7 °C 1005.6 hPa South 6.4 km/h 14.5 km/h 93 % 0.25 mm 26 W/m2
06:25 13.8 °C 12.7 °C 1005.6 hPa South 6.4 km/h 14.5 km/h 93 % 0.25 mm 23 W/m2
06:30 13.8 °C 12.7 °C 1005.3 hPa South 8 km/h 19.3 km/h 93 % 0.25 mm 21 W/m2
06:35 13.8 °C 12.7 °C 1005.3 hPa SSW 8 km/h 19.3 km/h 93 % 0.25 mm 21 W/m2
06:40 13.8 °C 12.7 °C 1005.3 hPa South 8 km/h 14.5 km/h 93 % 0.51 mm 46 W/m2
06:45 13.8 °C 12.7 °C 1005.3 hPa South 6.4 km/h 17.7 km/h 93 % 0.51 mm 51 W/m2
06:50 13.8 °C 12.8 °C 1005.3 hPa SSW 6.4 km/h 17.7 km/h 94 % 0.51 mm 67 W/m2
06:55 13.8 °C 12.8 °C 1005 hPa SSW 6.4 km/h 14.5 km/h 94 % 0.51 mm 72 W/m2
07:00 13.9 °C 12.9 °C 1005.3 hPa South 3.2 km/h 12.9 km/h 94 % 0.51 mm 51 W/m2
07:05 13.9 °C 12.9 °C 1005 hPa South 4.8 km/h 11.3 km/h 94 % 0.51 mm 49 W/m2
07:10 13.9 °C 12.9 °C 1005 hPa South 4.8 km/h 11.3 km/h 94 % 0.51 mm 42 W/m2
07:15 13.9 °C 12.9 °C 1005.3 hPa South 4.8 km/h 11.3 km/h 94 % 0.51 mm 58 W/m2
07:20 13.9 °C 12.9 °C 1005.3 hPa South 6.4 km/h 14.5 km/h 94 % 0.51 mm 49 W/m2
07:25 13.9 °C 12.9 °C 1005 hPa South 8 km/h 14.5 km/h 94 % 0.51 mm 46 W/m2
07:30 13.9 °C 12.9 °C 1005 hPa South 8 km/h 17.7 km/h 94 % 0.51 mm 56 W/m2
07:35 13.9 °C 12.9 °C 1005 hPa SSW 9.7 km/h 17.7 km/h 94 % 0.51 mm 76 W/m2
07:40 13.9 °C 12.9 °C 1005 hPa SSW 9.7 km/h 16.1 km/h 94 % 0.51 mm 100 W/m2
07:45 13.9 °C 12.9 °C 1005 hPa SSW 11.3 km/h 19.3 km/h 94 % 0.51 mm 116 W/m2
07:50 13.9 °C 12.9 °C 1004.6 hPa South 11.3 km/h 19.3 km/h 94 % 0.51 mm 118 W/m2
07:55 14 °C 13.1 °C 1004.6 hPa South 9.7 km/h 17.7 km/h 94 % 0.51 mm 107 W/m2
08:00 14.1 °C 13.2 °C 1004.6 hPa SSW 9.7 km/h 17.7 km/h 94 % 0.51 mm 114 W/m2
08:05 14.1 °C 13.2 °C 1004.6 hPa South 11.3 km/h 22.5 km/h 94 % 0.51 mm 158 W/m2
08:10 14.2 °C 13.2 °C 1004.6 hPa South 12.9 km/h 22.5 km/h 94 % 0.51 mm 127 W/m2
08:15 14.2 °C 13.1 °C 1004.6 hPa South 12.9 km/h 22.5 km/h 93 % 0.51 mm 139 W/m2
08:20 14.2 °C 13.1 °C 1004.6 hPa South 14.5 km/h 32.2 km/h 93 % 0.51 mm 153 W/m2
08:25 14.3 °C 13 °C 1004.6 hPa SSW 16.1 km/h 32.2 km/h 92 % 0.51 mm 149 W/m2
08:30 14.3 °C 13 °C 1004.6 hPa SSW 14.5 km/h 25.7 km/h 92 % 0.25 mm 167 W/m2
08:35 14.4 °C 13.1 °C 1004.6 hPa SSW 12.9 km/h 22.5 km/h 92 % 0.25 mm 223 W/m2
08:40 14.4 °C 13.1 °C 1004.6 hPa SSW 11.3 km/h 20.9 km/h 92 % 0.25 mm 216 W/m2
08:45 14.4 °C 13.1 °C 1004.6 hPa SSW 14.5 km/h 33.8 km/h 92 % 0.25 mm 253 W/m2
08:46 14.4 °C 13.1 °C 1004.6 hPa SSW 14.5 km/h 33.8 km/h 92 % 0.25 mm 253 W/m2
08:51 14.5 °C 13.2 °C 1004.6 hPa SSW 16.1 km/h 33.8 km/h 92 % 0.25 mm 255 W/m2
08:56 14.5 °C 13.2 °C 1004.6 hPa SSW 14.5 km/h 29 km/h 92 % 0.25 mm 162 W/m2
09:01 14.4 °C 12.9 °C 1004.6 hPa SSW 14.5 km/h 29 km/h 91 % 0 mm 127 W/m2
09:06 14.4 °C 12.9 °C 1004.6 hPa SSW 16.1 km/h 25.7 km/h 91 % 0 mm 95 W/m2
09:11 14.3 °C 12.8 °C 1004.6 hPa SSW 14.5 km/h 25.7 km/h 91 % 0 mm 104 W/m2
09:16 14.3 °C 12.8 °C 1004.6 hPa SSW 14.5 km/h 29 km/h 91 % 0 mm 160 W/m2
09:21 14.2 °C 12.8 °C 1004.6 hPa SSW 17.7 km/h 35.4 km/h 91 % 0 mm 176 W/m2
09:26 14.3 °C 13 °C 1004.6 hPa SSW 16.1 km/h 35.4 km/h 92 % 0 mm 130 W/m2
09:31 14.2 °C 12.9 °C 1004.3 hPa SSW 12.9 km/h 29 km/h 92 % 0 mm 188 W/m2
09:36 14.1 °C 12.8 °C 1004.6 hPa SSW 16.1 km/h 29 km/h 92 % 0 mm 98 W/m2
09:41 14 °C 12.6 °C 1004.6 hPa SSW 17.7 km/h 30.6 km/h 91 % 0 mm 123 W/m2
09:46 14 °C 12.7 °C 1004.6 hPa SSW 16.1 km/h 30.6 km/h 92 % 0 mm 120 W/m2
09:51 13.9 °C 12.6 °C 1004.3 hPa SSW 12.9 km/h 29 km/h 92 % 0 mm 134 W/m2
09:56 13.9 °C 12.6 °C 1004.3 hPa SSW 14.5 km/h 29 km/h 92 % 0 mm 125 W/m2
10:02 13.9 °C 12.6 °C 1004.6 hPa SSW 16.1 km/h 30.6 km/h 92 % 0 mm 125 W/m2
10:07 13.8 °C 12.5 °C 1004.6 hPa SSW 17.7 km/h 32.2 km/h 92 % 0 mm 121 W/m2
10:12 13.8 °C 12.5 °C 1004.3 hPa South 17.7 km/h 32.2 km/h 92 % 0 mm 132 W/m2
10:17 13.8 °C 12.3 °C 1004.3 hPa SSW 17.7 km/h 30.6 km/h 91 % 0 mm 151 W/m2
10:22 13.9 °C 12.6 °C 1004.3 hPa SSW 16.1 km/h 30.6 km/h 92 % 0 mm 167 W/m2
10:27 13.9 °C 12.4 °C 1004.3 hPa South 16.1 km/h 33.8 km/h 91 % 0 mm 121 W/m2
10:32 14 °C 12.6 °C 1004.3 hPa SSW 17.7 km/h 33.8 km/h 91 % 0 mm 163 W/m2
10:37 14.1 °C 12.7 °C 1004.3 hPa SSW 17.7 km/h 29 km/h 91 % 0 mm 190 W/m2
10:47 14.3 °C 12.7 °C 1004.3 hPa SSW 17.7 km/h 33.8 km/h 90 % 0 mm 262 W/m2
10:52 14.4 °C 12.8 °C 1003.9 hPa SSW 19.3 km/h 41.8 km/h 90 % 0 mm 216 W/m2
10:57 14.5 °C 12.7 °C 1003.9 hPa SSW 20.9 km/h 41.8 km/h 89 % 0 mm 207 W/m2
11:02 14.5 °C 12.6 °C 1003.9 hPa SSW 22.5 km/h 43.5 km/h 88 % 0 mm 186 W/m2
11:07 14.6 °C 12.8 °C 1003.9 hPa SSW 22.5 km/h 43.5 km/h 89 % 0 mm 207 W/m2
11:12 14.6 °C 12.6 °C 1003.9 hPa SSW 22.5 km/h 41.8 km/h 88 % 0 mm 232 W/m2
11:17 14.6 °C 12.6 °C 1003.9 hPa SSW 22.5 km/h 41.8 km/h 88 % 0 mm 392 W/m2
11:22 14.8 °C 12.8 °C 1003.6 hPa SSW 19.3 km/h 32.2 km/h 88 % 0 mm 415 W/m2
11:27 14.9 °C 12.9 °C 1003.6 hPa SSW 19.3 km/h 35.4 km/h 88 % 0 mm 237 W/m2
11:32 14.9 °C 12.9 °C 1003.6 hPa South 19.3 km/h 38.6 km/h 88 % 0 mm 264 W/m2
11:37 14.8 °C 12.8 °C 1003.6 hPa South 20.9 km/h 38.6 km/h 88 % 0 mm 243 W/m2
11:42 15 °C 13 °C 1003.6 hPa South 17.7 km/h 33.8 km/h 88 % 0 mm 274 W/m2
11:47 15 °C 12.8 °C 1003.6 hPa South 16.1 km/h 30.6 km/h 87 % 0 mm 156 W/m2
11:48 15.1 °C 12.9 °C 1003.6 hPa South 16.1 km/h 30.6 km/h 87 % 0 mm 156 W/m2
11:53 15.1 °C 12.9 °C 1003.6 hPa South 16.1 km/h 29 km/h 87 % 0 mm 183 W/m2
11:58 15.1 °C 12.9 °C 1003.6 hPa SSW 16.1 km/h 33.8 km/h 87 % 0 mm 195 W/m2
12:03 15.1 °C 12.8 °C 1003.6 hPa SSW 17.7 km/h 48.3 km/h 86 % 0 mm 146 W/m2
12:08 15.1 °C 12.8 °C 1003.6 hPa SSW 19.3 km/h 48.3 km/h 86 % 0 mm 104 W/m2
12:13 15 °C 12.7 °C 1003.6 hPa SSW 22.5 km/h 43.5 km/h 86 % 0 mm 81 W/m2
12:18 14.9 °C 12.6 °C 1003.3 hPa SSW 22.5 km/h 49.9 km/h 86 % 0 mm 130 W/m2
12:23 14.9 °C 12.9 °C 1003.3 hPa SSW 19.3 km/h 49.9 km/h 88 % 0 mm 197 W/m2
12:28 14.9 °C 12.9 °C 1003.3 hPa South 17.7 km/h 32.2 km/h 88 % 0 mm 376 W/m2
12:33 15 °C 13.2 °C 1002.9 hPa South 17.7 km/h 30.6 km/h 89 % 0.25 mm 401 W/m2
12:38 15.2 °C 13.4 °C 1002.9 hPa South 17.7 km/h 43.5 km/h 89 % 0.25 mm 343 W/m2
12:43 15.3 °C 13.5 °C 1002.9 hPa South 19.3 km/h 43.5 km/h 89 % 0.25 mm 146 W/m2
12:48 15.3 °C 13.5 °C 1002.9 hPa SSW 17.7 km/h 30.6 km/h 89 % 0.25 mm 104 W/m2
12:53 15.2 °C 13.2 °C 1003.3 hPa SSW 17.7 km/h 33.8 km/h 88 % 0.25 mm 98 W/m2
12:58 15.1 °C 13.1 °C 1003.3 hPa SSW 17.7 km/h 40.2 km/h 88 % 0.25 mm 120 W/m2
13:04 15.1 °C 13.1 °C 1002.9 hPa SSW 17.7 km/h 40.2 km/h 88 % 0.25 mm 214 W/m2
13:09 15.2 °C 13.2 °C 1002.9 hPa SSW 17.7 km/h 35.4 km/h 88 % 0.25 mm 158 W/m2
13:14 15.2 °C 13.2 °C 1002.9 hPa SSW 19.3 km/h 37 km/h 88 % 0.25 mm 267 W/m2
13:19 15.4 °C 13.2 °C 1002.9 hPa SSW 22.5 km/h 41.8 km/h 87 % 0.25 mm 455 W/m2
13:24 15.7 °C 13.6 °C 1002.9 hPa SSW 22.5 km/h 41.8 km/h 87 % 0.25 mm 680 W/m2
13:29 15.9 °C 13.6 °C 1002.6 hPa SSW 22.5 km/h 41.8 km/h 86 % 0.25 mm 330 W/m2
13:34 16.1 °C 13.6 °C 1002.6 hPa SSW 25.7 km/h 46.7 km/h 85 % 0 mm 626 W/m2
13:39 16.2 °C 13.5 °C 1002.6 hPa SSW 25.7 km/h 46.7 km/h 84 % 0 mm 308 W/m2
13:44 16.2 °C 13.5 °C 1002.6 hPa SSW 24.1 km/h 41.8 km/h 84 % 0 mm 294 W/m2
13:49 16.3 °C 13.6 °C 1002.6 hPa SSW 20.9 km/h 35.4 km/h 84 % 0 mm 320 W/m2
13:54 16.4 °C 13.7 °C 1002.6 hPa SSW 17.7 km/h 33.8 km/h 84 % 0 mm 318 W/m2
13:59 16.5 °C 13.6 °C 1002.6 hPa SSW 17.7 km/h 33.8 km/h 83 % 0 mm 371 W/m2
14:04 16.6 °C 13.7 °C 1002.6 hPa SSW 20.9 km/h 35.4 km/h 83 % 0 mm 501 W/m2
14:09 16.9 °C 13.8 °C 1002.6 hPa SSW 20.9 km/h 41.8 km/h 82 % 0 mm 541 W/m2
14:10 17 °C 13.9 °C 1002.6 hPa SSW 20.9 km/h 41.8 km/h 82 % 0 mm 541 W/m2
14:15 17.6 °C 14.3 °C 1002.3 hPa SSW 22.5 km/h 41.8 km/h 81 % 0 mm 1032 W/m2
14:20 18 °C 14.5 °C 1002.6 hPa SW 24.1 km/h 43.5 km/h 80 % 0 mm 893 W/m2
14:25 18.1 °C 14.2 °C 1002.3 hPa SW 24.1 km/h 45.1 km/h 78 % 0 mm 336 W/m2
14:30 17.9 °C 14 °C 1002.3 hPa SSW 24.1 km/h 45.1 km/h 78 % 0 mm 401 W/m2
14:31 17.9 °C 14 °C 1002.3 hPa SSW 24.1 km/h 45.1 km/h 78 % 0 mm 401 W/m2
14:36 18 °C 13.9 °C 1002.3 hPa SSW 25.7 km/h 38.6 km/h 77 % 0 mm 446 W/m2
14:41 18.3 °C 14.2 °C 1002.3 hPa SSW 25.7 km/h 40.2 km/h 77 % 0 mm 1032 W/m2
14:42 18.4 °C 14.5 °C 1002.3 hPa SSW 25.7 km/h 40.2 km/h 78 % 0 mm 1032 W/m2
14:47 18.7 °C 14.4 °C 1002.3 hPa SSW 24.1 km/h 51.5 km/h 76 % 0 mm 803 W/m2
14:52 18.7 °C 14.4 °C 1002.3 hPa SSW 25.7 km/h 51.5 km/h 76 % 0 mm 380 W/m2
14:57 18.9 °C 14.4 °C 1001.9 hPa SW 25.7 km/h 40.2 km/h 75 % 0 mm 988 W/m2
15:02 18.9 °C 14.2 °C 1001.9 hPa SSW 25.7 km/h 48.3 km/h 74 % 0 mm 352 W/m2
15:07 18.7 °C 13.9 °C 1001.9 hPa SSW 27.4 km/h 48.3 km/h 74 % 0 mm 272 W/m2
15:12 18.9 °C 14.4 °C 1001.9 hPa SSW 27.4 km/h 45.1 km/h 75 % 0 mm 264 W/m2
15:17 19 °C 14.3 °C 1001.9 hPa SSW 25.7 km/h 45.1 km/h 74 % 0 mm 248 W/m2
15:23 18.8 °C 14.3 °C 1001.9 hPa SW 24.1 km/h 40.2 km/h 75 % 0 mm 315 W/m2
15:28 18.7 °C 14.2 °C 1001.9 hPa SW 24.1 km/h 40.2 km/h 75 % 0 mm 258 W/m2
15:33 18.5 °C 14.2 °C 1001.9 hPa SW 22.5 km/h 40.2 km/h 76 % 0 mm 237 W/m2
15:35 18.5 °C 14.2 °C 1001.9 hPa SSW 22.5 km/h 40.2 km/h 76 % 0 mm 276 W/m2
15:40 18.7 °C 14.4 °C 1001.9 hPa SSW 20.9 km/h 38.6 km/h 76 % 0 mm 276 W/m2
15:45 19 °C 14.1 °C 1001.9 hPa SSW 22.5 km/h 43.5 km/h 73 % 0 mm 297 W/m2
15:50 19 °C 14.1 °C 1001.9 hPa SSW 25.7 km/h 43.5 km/h 73 % 0 mm 167 W/m2
15:55 18.9 °C 14.2 °C 1001.9 hPa SW 22.5 km/h 41.8 km/h 74 % 0 mm 230 W/m2
16:00 18.9 °C 14.2 °C 1001.9 hPa SW 24.1 km/h 46.7 km/h 74 % 0 mm 432 W/m2
16:05 18.8 °C 14.1 °C 1001.9 hPa SW 25.7 km/h 46.7 km/h 74 % 0 mm 308 W/m2
16:10 19.1 °C 14.3 °C 1001.6 hPa SW 24.1 km/h 43.5 km/h 74 % 0 mm 749 W/m2
16:15 19.4 °C 14.7 °C 1001.9 hPa SW 20.9 km/h 41.8 km/h 74 % 0 mm 229 W/m2
16:20 19.4 °C 14.2 °C 1001.6 hPa SW 20.9 km/h 53.1 km/h 72 % 0 mm 163 W/m2
16:25 19.4 °C 14.2 °C 1001.6 hPa SW 22.5 km/h 53.1 km/h 72 % 0 mm 780 W/m2
16:30 19.6 °C 14 °C 1001.6 hPa SSW 27.4 km/h 43.5 km/h 70 % 0 mm 200 W/m2
16:35 19.4 °C 13.8 °C 1001.6 hPa SSW 30.6 km/h 43.5 km/h 70 % 0 mm 200 W/m2
16:40 19.4 °C 14 °C 1001.6 hPa SSW 27.4 km/h 45.1 km/h 71 % 0 mm 796 W/m2
16:41 19.4 °C 14 °C 1001.6 hPa SSW 27.4 km/h 45.1 km/h 71 % 0 mm 796 W/m2
16:46 19.5 °C 14.3 °C 1001.6 hPa SSW 24.1 km/h 45.1 km/h 72 % 0 mm 225 W/m2
16:51 19.4 °C 14.4 °C 1001.6 hPa SSW 24.1 km/h 46.7 km/h 73 % 0 mm 650 W/m2
16:56 19.4 °C 14.4 °C 1001.6 hPa SSW 24.1 km/h 46.7 km/h 73 % 0 mm 128 W/m2
17:01 19.2 °C 14.2 °C 1001.2 hPa SW 20.9 km/h 37 km/h 73 % 0 mm 213 W/m2
17:06 19.2 °C 14.7 °C 1001.2 hPa SW 17.7 km/h 32.2 km/h 75 % 0 mm 348 W/m2
17:11 19.3 °C 14.3 °C 1001.6 hPa SW 20.9 km/h 37 km/h 73 % 0 mm 246 W/m2
17:16 19.3 °C 14.1 °C 1001.6 hPa SW 24.1 km/h 40.2 km/h 72 % 0 mm 162 W/m2
17:21 19 °C 14.1 °C 1001.6 hPa SW 24.1 km/h 40.2 km/h 73 % 0 mm 260 W/m2
17:26 18.9 °C 13.9 °C 1001.6 hPa SW 25.7 km/h 45.1 km/h 73 % 0 mm 640 W/m2
17:31 19.2 °C 14.2 °C 1001.2 hPa SW 24.1 km/h 45.1 km/h 73 % 0 mm 559 W/m2
17:36 19.5 °C 14.3 °C 1001.2 hPa SW 20.9 km/h 38.6 km/h 72 % 0 mm 566 W/m2
17:41 19.4 °C 14 °C 1001.2 hPa SW 24.1 km/h 43.5 km/h 71 % 0 mm 179 W/m2
17:46 19.1 °C 13.7 °C 1001.2 hPa SW 27.4 km/h 43.5 km/h 71 % 0 mm 91 W/m2
17:51 19.1 °C 13.9 °C 1001.6 hPa SW 24.1 km/h 41.8 km/h 72 % 0 mm 476 W/m2
17:56 19.3 °C 13.9 °C 1001.6 hPa SW 20.9 km/h 45.1 km/h 71 % 0 mm 445 W/m2
18:01 19.5 °C 13.7 °C 1001.6 hPa SW 24.1 km/h 46.7 km/h 69 % 0 mm 438 W/m2
18:06 19.6 °C 13.6 °C 1001.2 hPa SW 27.4 km/h 51.5 km/h 68 % 0 mm 450 W/m2
18:11 19.7 °C 13.6 °C 1001.2 hPa SW 25.7 km/h 51.5 km/h 68 % 0 mm 475 W/m2
18:16 19.7 °C 13.6 °C 1001.2 hPa SW 22.5 km/h 45.1 km/h 68 % 0 mm 146 W/m2
18:21 19.6 °C 13.6 °C 1001.2 hPa SW 20.9 km/h 35.4 km/h 68 % 0 mm 388 W/m2
18:27 19.6 °C 12.1 °C 1001.2 hPa WSW 22.5 km/h 40.2 km/h 62 % 0 mm 111 W/m2
18:32 19.4 °C 11.9 °C 1001.6 hPa WSW 27.4 km/h 43.5 km/h 62 % 0 mm 91 W/m2
18:37 19.2 °C 12 °C 1001.6 hPa SW 25.7 km/h 43.5 km/h 63 % 0 mm 47 W/m2
18:42 18.9 °C 11.9 °C 1001.6 hPa SW 22.5 km/h 41.8 km/h 64 % 0 mm 70 W/m2
18:47 18.7 °C 12 °C 1001.6 hPa SW 22.5 km/h 43.5 km/h 65 % 0 mm 88 W/m2
18:52 18.6 °C 11.7 °C 1001.6 hPa SW 22.5 km/h 43.5 km/h 64 % 0 mm 107 W/m2
18:57 18.6 °C 12.1 °C 1001.9 hPa SW 19.3 km/h 37 km/h 66 % 0 mm 76 W/m2
19:02 18.4 °C 11.9 °C 1001.9 hPa WSW 19.3 km/h 35.4 km/h 66 % 0 mm 63 W/m2
19:07 18.3 °C 11.8 °C 1001.9 hPa WSW 20.9 km/h 35.4 km/h 66 % 0 mm 102 W/m2
19:12 18.1 °C 12.1 °C 1001.9 hPa West 19.3 km/h 32.2 km/h 68 % 0 mm 121 W/m2
19:17 17.8 °C 12.1 °C 1002.3 hPa West 20.9 km/h 33.8 km/h 69 % 0 mm 299 W/m2
19:22 17.7 °C 12.2 °C 1001.9 hPa West 19.3 km/h 33.8 km/h 70 % 0 mm 40 W/m2
19:27 17.5 °C 12.2 °C 1002.3 hPa West 17.7 km/h 32.2 km/h 71 % 0 mm 62 W/m2
19:32 17.3 °C 12.4 °C 1002.3 hPa West 17.7 km/h 32.2 km/h 73 % 0 mm 77 W/m2
19:37 17.2 °C 12.5 °C 1002.3 hPa West 17.7 km/h 32.2 km/h 74 % 0 mm 79 W/m2
19:42 17.1 °C 12.4 °C 1002.3 hPa West 17.7 km/h 35.4 km/h 74 % 0 mm 37 W/m2
19:47 16.9 °C 12.2 °C 1002.3 hPa WSW 17.7 km/h 35.4 km/h 74 % 0 mm 83 W/m2
19:52 16.9 °C 12.4 °C 1002.3 hPa WSW 16.1 km/h 32.2 km/h 75 % 0 mm 153 W/m2
19:57 16.9 °C 12.7 °C 1002.3 hPa WSW 16.1 km/h 30.6 km/h 76 % 0 mm 65 W/m2
20:02 16.9 °C 12.7 °C 1002.3 hPa WSW 16.1 km/h 29 km/h 76 % 0 mm 79 W/m2
20:07 16.8 °C 12.6 °C 1002.6 hPa WSW 16.1 km/h 29 km/h 76 % 0 mm 63 W/m2
20:12 16.8 °C 12.6 °C 1002.3 hPa WSW 14.5 km/h 25.7 km/h 76 % 0 mm 35 W/m2
20:17 16.7 °C 12.4 °C 1002.3 hPa WSW 17.7 km/h 29 km/h 76 % 0 mm 21 W/m2
20:22 16.6 °C 12.3 °C 1002.3 hPa WSW 17.7 km/h 29 km/h 76 % 0 mm 23 W/m2
20:27 16.5 °C 12.4 °C 1002.6 hPa SW 16.1 km/h 25.7 km/h 77 % 0 mm 18 W/m2
20:32 16.4 °C 12.3 °C 1002.6 hPa WSW 16.1 km/h 25.7 km/h 77 % 0 mm 18 W/m2
20:37 16.3 °C 12.3 °C 1002.6 hPa WSW 14.5 km/h 25.7 km/h 77 % 0 mm 23 W/m2
20:42 16.3 °C 12.3 °C 1002.9 hPa WSW 14.5 km/h 24.1 km/h 77 % 0 mm 54 W/m2
20:48 16.3 °C 12.4 °C 1002.9 hPa WSW 16.1 km/h 30.6 km/h 78 % 0 mm 60 W/m2
20:53 16.2 °C 12.3 °C 1002.9 hPa SW 16.1 km/h 30.6 km/h 78 % 0 mm 58 W/m2
20:58 16 °C 12.2 °C 1002.9 hPa WSW 14.5 km/h 29 km/h 78 % 0 mm 25 W/m2
21:03 15.8 °C 11.9 °C 1002.9 hPa SW 14.5 km/h 29 km/h 78 % 0 mm 14 W/m2
21:08 15.7 °C 11.9 °C 1002.9 hPa SW 14.5 km/h 25.7 km/h 78 % 0 mm 12 W/m2
21:13 15.6 °C 11.8 °C 1002.9 hPa SW 14.5 km/h 25.7 km/h 78 % 0 mm 18 W/m2
21:18 15.4 °C 11.6 °C 1002.9 hPa SW 12.9 km/h 22.5 km/h 78 % 0 mm 9 W/m2
21:23 15.3 °C 11.7 °C 1003.3 hPa WSW 12.9 km/h 24.1 km/h 79 % 0 mm 9 W/m2
21:28 15.2 °C 11.6 °C 1003.3 hPa SW 12.9 km/h 24.1 km/h 79 % 0 mm 7 W/m2
21:33 15.1 °C 11.7 °C 1003.3 hPa SW 12.9 km/h 22.5 km/h 80 % 0 mm 0 W/m2
21:38 15.1 °C 11.7 °C 1003.3 hPa WSW 12.9 km/h 22.5 km/h 80 % 0 mm 0 W/m2
21:43 15.1 °C 11.7 °C 1003.3 hPa SW 12.9 km/h 20.9 km/h 80 % 0 mm 0 W/m2
21:48 15 °C 11.8 °C 1003.3 hPa WSW 14.5 km/h 29 km/h 81 % 0 mm 0 W/m2
21:53 14.9 °C 11.7 °C 1003.6 hPa WSW 16.1 km/h 29 km/h 81 % 0 mm 0 W/m2
21:58 14.8 °C 11.6 °C 1003.6 hPa WSW 14.5 km/h 22.5 km/h 81 % 0 mm 0 W/m2
22:03 14.8 °C 11.8 °C 1003.6 hPa WSW 12.9 km/h 22.5 km/h 82 % 0 mm 0 W/m2
22:08 14.7 °C 11.7 °C 1003.6 hPa SW 9.7 km/h 17.7 km/h 82 % 0 mm 0 W/m2
22:13 14.6 °C 11.7 °C 1003.6 hPa SW 8 km/h 17.7 km/h 83 % 0 mm 0 W/m2
22:18 14.4 °C 11.7 °C 1003.6 hPa SW 8 km/h 16.1 km/h 84 % 0 mm 0 W/m2
22:23 14.3 °C 11.6 °C 1003.3 hPa SW 9.7 km/h 19.3 km/h 84 % 0 mm 0 W/m2
22:28 14.2 °C 11.6 °C 1003.6 hPa SW 11.3 km/h 19.3 km/h 84 % 0 mm 0 W/m2
22:33 14.2 °C 11.7 °C 1003.6 hPa SW 11.3 km/h 19.3 km/h 85 % 0 mm 0 W/m2
22:38 14.2 °C 11.6 °C 1003.6 hPa SW 12.9 km/h 24.1 km/h 84 % 0 mm 0 W/m2
22:43 14.2 °C 11.6 °C 1003.6 hPa SW 12.9 km/h 24.1 km/h 84 % 0 mm 0 W/m2
22:48 14.1 °C 11.4 °C 1003.6 hPa SW 11.3 km/h 22.5 km/h 84 % 0 mm 0 W/m2
22:54 14.1 °C 11.4 °C 1003.6 hPa SW 11.3 km/h 20.9 km/h 84 % 0 mm 0 W/m2
22:58 13.9 °C 11.2 °C 1003.6 hPa SW 11.3 km/h 19.3 km/h 84 % 0 mm 0 W/m2
23:03 13.9 °C 11.2 °C 1003.6 hPa SW 11.3 km/h 19.3 km/h 84 % 0 mm 0 W/m2
23:08 13.8 °C 10.9 °C 1003.6 hPa SW 11.3 km/h 19.3 km/h 83 % 0 mm 0 W/m2
23:14 13.8 °C 10.9 °C 1003.6 hPa SW 11.3 km/h 17.7 km/h 83 % 0 mm 0 W/m2
23:19 13.7 °C 11.1 °C 1003.6 hPa SW 9.7 km/h 16.1 km/h 84 % 0 mm 0 W/m2
23:28 13.5 °C 10.8 °C 1003.6 hPa SSW 8 km/h 12.9 km/h 84 % 0 mm 0 W/m2
23:34 13.4 °C 10.9 °C 1003.6 hPa SSW 8 km/h 12.9 km/h 85 % 0 mm 0 W/m2
23:39 13.3 °C 10.8 °C 1003.6 hPa SSW 6.4 km/h 12.9 km/h 85 % 0 mm 0 W/m2
23:44 13.2 °C 10.7 °C 1003.6 hPa SSW 8 km/h 14.5 km/h 85 % 0 mm 0 W/m2
23:49 13.1 °C 10.6 °C 1003.6 hPa SW 9.7 km/h 14.5 km/h 85 % 0 mm 0 W/m2
23:54 13.1 °C 10.4 °C 1003.6 hPa SW 9.7 km/h 14.5 km/h 84 % 0 mm 0 W/m2
23:59 13.1 °C 10.4 °C 1003.6 hPa SSW 11.3 km/h 19.3 km/h 84 % 0 mm 0 W/m2
Delerius-Weather
Compliments of Weather Underground - 2.25 mb

Data updates at regular intervals.